When you browse on this site, cookies collect data to enhance your experience and personalize the content and advertising you see.
Visit our Privacy Policy to learn more. By continuing to use the site, you agree to this use of cookies and data.

Tiempo cada hora La Serena

Hoy, 9 Agosto, Domingo

Tiempo Temperatura Precipitaciones Viento Presión Humedad
00:00 +16°C° 0 mm 0 mps 760 mmHg 78%
01:00 +16°C° 0 mm 0 mps 760 mmHg 80%
02:00 +15°C° 0 mm 0 mps 760 mmHg 81%
03:00 +15°C° 0 mm 0 mps 760 mmHg 83%
04:00 +15°C° 0 mm 0 mps 760 mmHg 84%
05:00 +15°C° 0 mm 0 mps 761 mmHg 84%
06:00 +15°C° 0 mm 0 mps 761 mmHg 83%
07:00 +15°C° 0 mm 0 mps 761 mmHg 83%
08:00 +18°C° 0 mm 1 mps 761 mmHg 76%
09:00 +20°C° 0 mm 1 mps 761 mmHg 70%
10:00 +20°C° 0 mm 2 mps 761 mmHg 63%
11:00 +21°C° 0 mm 3 mps 761 mmHg 61%
12:00 +22°C° 0 mm 3 mps 761 mmHg 59%
13:00 +22°C° 0 mm 4 mps 761 mmHg 57%
14:00 +22°C° 0 mm 4 mps 761 mmHg 58%
15:00 +21°C° 0 mm 4 mps 761 mmHg 60%
16:00 +21°C° 0 mm 3 mps 761 mmHg 61%
17:00 +20°C° 0 mm 3 mps 761 mmHg 63%
18:00 +20°C° 0 mm 3 mps 762 mmHg 65%
19:00 +19°C° 0 mm 3 mps 762 mmHg 67%
20:00 +19°C° 0 mm 2 mps 762 mmHg 68%
21:00 +18°C° 0 mm 2 mps 762 mmHg 69%
22:00 +18°C° 0 mm 2 mps 762 mmHg 70%
23:00 +17°C° 0 mm 2 mps 761 mmHg 71%

Mañana, 10 Agosto, Lunes

Tiempo Temperatura Precipitaciones Viento Presión Humedad
00:00 +17°C° 0 mm 2 mps 761 mmHg 72%
01:00 +17°C° 0 mm 2 mps 761 mmHg 73%
02:00 +16°C° 0 mm 2 mps 761 mmHg 74%
03:00 +16°C° 0 mm 2 mps 760 mmHg 75%
04:00 +15°C° 0 mm 2 mps 760 mmHg 76%
05:00 +16°C° 0 mm 3 mps 760 mmHg 76%
06:00 +16°C° 0 mm 3 mps 760 mmHg 76%
07:00 +16°C° 0 mm 3 mps 761 mmHg 75%
08:00 +17°C° 0 mm 3 mps 760 mmHg 68%
09:00 +19°C° 0 mm 3 mps 760 mmHg 61%
10:00 +20°C° 0 mm 3 mps 760 mmHg 54%
11:00 +21°C° 0 mm 3 mps 760 mmHg 51%
12:00 +22°C° 0 mm 4 mps 760 mmHg 49%
13:00 +22°C° 0 mm 4 mps 759 mmHg 46%
14:00 +22°C° 0 mm 4 mps 759 mmHg 46%
15:00 +22°C° 0 mm 4 mps 758 mmHg 45%
16:00 +22°C° 0 mm 4 mps 758 mmHg 45%
17:00 +21°C° 0 mm 3 mps 758 mmHg 49%
18:00 +20°C° 0 mm 3 mps 758 mmHg 53%
19:00 +19°C° 0 mm 3 mps 758 mmHg 58%
20:00 +18°C° 0 mm 3 mps 758 mmHg 61%
21:00 +18°C° 0 mm 3 mps 758 mmHg 64%
22:00 +17°C° 0 mm 3 mps 758 mmHg 67%
23:00 +16°C° 0 mm 3 mps 758 mmHg 69%

Pasado mañana, 11 Agosto, Martes

Tiempo Temperatura Precipitaciones Viento Presión Humedad
00:00 +16°C° 0 mm 3 mps 758 mmHg 70%
01:00 +14°C° 0 mm 3 mps 758 mmHg 72%
02:00 +15°C° 0 mm 2 mps 758 mmHg 74%
03:00 +15°C° 0 mm 2 mps 757 mmHg 75%
04:00 +14°C° 0 mm 2 mps 757 mmHg 77%
05:00 +15°C° 0 mm 2 mps 757 mmHg 76%
06:00 +15°C° 0 mm 2 mps 757 mmHg 75%
07:00 +15°C° 0 mm 1 mps 757 mmHg 74%
08:00 +16°C° 0 mm 2 mps 757 mmHg 69%
09:00 +18°C° 0 mm 2 mps 758 mmHg 63%
10:00 +19°C° 0 mm 2 mps 758 mmHg 57%
11:00 +19°C° 0 mm 3 mps 758 mmHg 57%
12:00 +20°C° 0 mm 3 mps 757 mmHg 56%
13:00 +20°C° 0 mm 3 mps 757 mmHg 56%
14:00 +19°C° 0 mm 3 mps 757 mmHg 58%
15:00 +19°C° 0 mm 3 mps 757 mmHg 60%
16:00 +18°C° 0 mm 3 mps 756 mmHg 63%
17:00 +17°C° 0 mm 3 mps 757 mmHg 66%
18:00 +17°C° 0 mm 2 mps 757 mmHg 69%
19:00 +16°C° 0 mm 2 mps 758 mmHg 72%
20:00 +15°C° 0 mm 2 mps 758 mmHg 74%
21:00 +15°C° 0 mm 2 mps 758 mmHg 76%
22:00 +14°C° 0 mm 2 mps 758 mmHg 78%
23:00 +14°C° 0 mm 2 mps 758 mmHg 81%

12 Agosto, Miércoles

Tiempo Temperatura Precipitaciones Viento Presión Humedad
00:00 +13°C° 0 mm 2 mps 759 mmHg 83%
01:00 +13°C° 0 mm 1 mps 759 mmHg 85%
02:00 +12°C° 0 mm 1 mps 759 mmHg 86%
03:00 +12°C° 0 mm 2 mps 759 mmHg 87%
04:00 +12°C° 0 mm 2 mps 758 mmHg 89%
05:00 +12°C° 0 mm 2 mps 759 mmHg 87%
06:00 +12°C° 0 mm 2 mps 759 mmHg 86%
07:00 +12°C° 0 mm 2 mps 760 mmHg 85%
08:00 +14°C° 0 mm 2 mps 760 mmHg 78%
09:00 +15°C° 0 mm 2 mps 760 mmHg 71%
10:00 +17°C° 0 mm 2 mps 760 mmHg 64%
11:00 +17°C° 0 mm 2 mps 760 mmHg 61%
12:00 +18°C° 0 mm 3 mps 759 mmHg 58%
13:00 +19°C° 0 mm 3 mps 759 mmHg 56%
14:00 +18°C° 0 mm 3 mps 759 mmHg 58%
15:00 +18°C° 0 mm 3 mps 759 mmHg 60%
16:00 +17°C° 0 mm 3 mps 758 mmHg 62%
17:00 +17°C° 0 mm 3 mps 759 mmHg 66%
18:00 +16°C° 0 mm 2 mps 759 mmHg 70%
19:00 +15°C° 0 mm 2 mps 759 mmHg 73%
20:00 +15°C° 0 mm 2 mps 759 mmHg 74%
21:00 +15°C° 0 mm 1 mps 759 mmHg 75%
22:00 +14°C° 0 mm 1 mps 760 mmHg 76%
23:00 +14°C° 0 mm 1 mps 759 mmHg 78%

13 Agosto, Jueves

Tiempo Temperatura Precipitaciones Viento Presión Humedad
00:00 +14°C° 0 mm 1 mps 759 mmHg 80%
01:00 +13°C° 0 mm 1 mps 759 mmHg 82%
02:00 +13°C° 0 mm 1 mps 759 mmHg 83%
03:00 +13°C° 0 mm 1 mps 759 mmHg 84%
04:00 +12°C° 0 mm 1 mps 758 mmHg 84%
05:00 +12°C° 0 mm 1 mps 759 mmHg 84%
06:00 +13°C° 0 mm 1 mps 759 mmHg 83%
07:00 +13°C° 0 mm 1 mps 759 mmHg 82%
08:00 +15°C° 0 mm 2 mps 759 mmHg 74%
09:00 +16°C° 0 mm 2 mps 759 mmHg 66%
10:00 +18°C° 0 mm 2 mps 759 mmHg 58%
11:00 +18°C° 0 mm 3 mps 758 mmHg 57%
12:00 +19°C° 0 mm 3 mps 758 mmHg 56%
13:00 +19°C° 0 mm 4 mps 757 mmHg 55%
14:00 +18°C° 0 mm 4 mps 757 mmHg 59%
15:00 +18°C° 0 mm 4 mps 758 mmHg 64%
16:00 +17°C° 0 mm 4 mps 758 mmHg 68%
17:00 +15°C° 0 mm 4 mps 758 mmHg 73%
18:00 +14°C° 0 mm 3 mps 759 mmHg 78%
19:00 +13°C° 0 mm 3 mps 759 mmHg 83%
20:00 +13°C° 0 mm 3 mps 759 mmHg 84%
21:00 +12°C° 0 mm 3 mps 760 mmHg 86%
22:00 +12°C° 0 mm 3 mps 760 mmHg 88%
23:00 +12°C° 0 mm 3 mps 760 mmHg 88%

14 Agosto, Viernes

Tiempo Temperatura Precipitaciones Viento Presión Humedad
00:00 +13°C° 0 mm 2 mps 760 mmHg 87%
01:00 +13°C° 0 mm 2 mps 760 mmHg 87%
02:00 +13°C° 0 mm 2 mps 760 mmHg 86%
03:00 +13°C° 0 mm 2 mps 760 mmHg 85%
04:00 +13°C° 0 mm 2 mps 760 mmHg 84%
05:00 +13°C° 0 mm 2 mps 761 mmHg 84%
06:00 +13°C° 0 mm 2 mps 761 mmHg 83%
07:00 +13°C° 0 mm 2 mps 761 mmHg 83%
08:00 +13°C° 0 mm 2 mps 761 mmHg 79%
09:00 +14°C° 0 mm 2 mps 761 mmHg 76%
10:00 +14°C° 0 mm 2 mps 761 mmHg 72%
11:00 +13°C° 0 mm 3 mps 761 mmHg 69%
12:00 +14°C° 0 mm 3 mps 760 mmHg 67%
13:00 +14°C° 0 mm 4 mps 760 mmHg 64%
14:00 +14°C° 0 mm 4 mps 760 mmHg 65%
15:00 +14°C° 0 mm 4 mps 760 mmHg 65%
16:00 +14°C° 0 mm 4 mps 760 mmHg 65%
17:00 +13°C° 0 mm 3 mps 761 mmHg 69%
18:00 +13°C° 0 mm 3 mps 761 mmHg 73%
19:00 +13°C° 0 mm 2 mps 762 mmHg 77%
20:00 +13°C° 0 mm 2 mps 762 mmHg 78%
21:00 +13°C° 0 mm 2 mps 762 mmHg 79%
22:00 +12°C° 0 mm 1 mps 762 mmHg 80%
23:00 +12°C° 0 mm 1 mps 762 mmHg 81%
Mostrar más